User: anonymous   Login
Location: Unspecified
(0.0000°N, 0.0000°E)
Time: 07:30:40
(UTC+00:00)
Language:

NAVSTAR 64 (USA 206) - Orbit

View from above orbital plane
View from above orbital plane
View from above satellite
View from above satellite

Ground track
Ground track

The orbit data is extracted from the following two-line orbital elements,

1 35752U 09043A   15057.39039102  .00000002  00000-0  00000+0 0  9994
2 35752 054.2414 193.6423 0039481 020.4909 353.3554 02.00550521 40542
Epoch (UTC): 26 February 2015 09:22:09
Eccentricity: 0.0039481
inclination: 54.2414°
perigee height: 20078 km
apogee height: 20288 km
right ascension of ascending node: 193.6423°
argument of perigee: 20.4909°
revolutions per day: 2.00550521
mean anomaly at epoch: 353.3554°
orbit number at epoch: 4054

The dashed part of the orbit path shows where the satellite is in the earth's shadow,  

DLR